[[{"header":{"parameterUnit":"m.s-1","parameterCategory":1,"la1":30.2991,"la2":30.254,"lo1":-89.0895,"lo2":-89.0444,"dy":0.0017,"dx":0.0017,"nx":28,"ny":28,"refTime":"2024-12-20T09:00:00:Z","depth":0,"parameterNumber":2,"parameterNumberName":"U-component_of_WINDS"},"data":[0,0,0,0,0,0,0,0,0,0,0,0,0,0,0,0,0,0,0,0,0,0,0,0,0,0,0,0,0,0,0,0,0,0,0,0,0,0,0,0,0,0,0,0,0,0,0,0,0,0,0,0,0,0,0,0,0,0,-0.0557,-0.0557,0,-0.0599,-0.0599,-0.0599,-0.0577,-0.0576,-0.0574,-0.0573,-0.0618,-0.062,-0.0623,0,0,0,0,0,0,0,0,0,0,0,0,0,-0.0458,-0.046,-0.0557,-0.0557,-0.0558,-0.0598,-0.0599,-0.06,-0.0577,-0.0575,-0.0574,-0.0573,-0.0617,-0.062,-0.0623,0,0,0,0,0,0,0,0,0,0,0,0,0,-0.0501,-0.0461,-0.0557,-0.0551,-0.0551,-0.0598,-0.0599,-0.06,-0.0577,-0.0575,-0.0574,-0.0572,-0.0617,-0.062,-0.0623,-0.0679,0,0,-0.0634,-0.0635,0,0,0,0,0,0,0,0,-0.0498,-0.0504,-0.0552,-0.0552,-0.0552,-0.0581,-0.0581,-0.0626,-0.0578,-0.0567,-0.0573,-0.0571,-0.0607,-0.0611,-0.0623,-0.0681,-0.0683,-0.0634,-0.0636,-0.0637,-0.0638,0,0,0,0,0,0,0,-0.0495,-0.0502,-0.0573,-0.0552,-0.0552,-0.0547,-0.0551,-0.0589,-0.0597,-0.0568,-0.0567,-0.0572,-0.0607,-0.062,-0.0624,-0.0683,-0.0634,-0.0637,-0.0639,-0.064,-0.0788,-0.079,0,0,0,0,0,0,-0.0493,-0.05,-0.0572,-0.0575,-0.052,-0.055,-0.0555,-0.0573,-0.0596,-0.0598,-0.0573,-0.057,-0.0615,-0.062,-0.0625,-0.0692,-0.0637,-0.0641,-0.0643,-0.0786,-0.0788,-0.079,0,0,0,0,0,0,-0.049,-0.0499,-0.057,-0.0537,-0.0546,-0.0554,-0.0574,-0.0575,-0.0588,-0.06,-0.0601,-0.0585,-0.0614,-0.0621,-0.0665,-0.0693,-0.0642,-0.0645,-0.0784,-0.0787,-0.0789,-0.0825,0,0,0,0,0,0,-0.0488,-0.0499,-0.052,-0.0538,-0.0547,-0.061,-0.0576,-0.0577,-0.0593,-0.059,-0.0611,-0.0613,-0.0613,-0.066,-0.0669,-0.0697,-0.0648,-0.0781,-0.0785,-0.0788,-0.0821,-0.0829,-0.0835,0,0,0,0,0,-0.0484,-0.0529,-0.0521,-0.053,-0.0574,-0.0611,-0.0617,-0.0615,-0.0596,-0.0617,-0.0624,-0.0612,-0.0688,-0.0665,-0.0674,-0.0704,-0.078,-0.0784,-0.0788,-0.0818,-0.0827,-0.0835,0,0,0,0,0,0,-0.0515,-0.0531,-0.0523,-0.0574,-0.0591,-0.0607,-0.0635,-0.0625,-0.0649,-0.0645,-0.0642,-0.0647,-0.0694,-0.0703,-0.0677,-0.0758,-0.0731,-0.0737,-0.0751,-0.0759,-0.0766,-0.0764,-0.0651,0,0,0,0,0,-0.0528,-0.0556,-0.0569,-0.0613,-0.0622,-0.0627,-0.0643,-0.064,-0.0658,-0.0665,-0.0676,-0.0695,-0.0722,-0.0741,-0.0767,-0.0822,-0.0826,-0.0846,-0.0853,-0.0859,-0.0865,-0.0894,-0.0903,-0.0804,-0.0804,-0.0804,0,0,-0.0555,-0.0567,-0.0585,-0.0619,-0.0633,-0.0662,-0.0633,-0.0666,-0.0688,-0.0671,-0.0714,-0.0722,-0.0742,-0.0792,-0.0814,-0.0801,-0.0893,-0.0864,-0.0868,-0.0872,-0.0899,-0.0909,-0.0917,-0.0807,-0.0806,-0.0806,0,0,-0.062,-0.0631,-0.0669,-0.0682,-0.0702,-0.0704,-0.0713,-0.073,-0.0735,-0.0777,-0.0764,-0.079,-0.0839,-0.0854,-0.0867,-0.0935,-0.0925,-0.0943,-0.098,-0.1008,-0.1016,-0.1023,-0.1047,-0.1056,-0.0949,-0.0949,-0.0949,0,-0.0651,-0.0695,-0.069,-0.0724,-0.0739,-0.0723,-0.0761,-0.0774,-0.0802,-0.0813,-0.0797,-0.0856,-0.0869,-0.0922,-0.0938,-0.0949,-0.096,-0.0942,-0.1015,-0.1022,-0.1028,-0.1052,-0.1061,-0.0951,-0.0951,-0.0951,-0.0951,0,-0.0733,-0.0763,-0.0792,-0.0818,-0.0836,-0.0872,-0.0873,-0.0892,-0.0886,-0.089,-0.0933,-0.0947,-0.0976,-0.0988,-0.0983,-0.104,-0.1031,-0.1015,-0.0988,-0.104,-0.1062,-0.1071,-0.0955,-0.0954,-0.0953,-0.0953,0,0,-0.0821,-0.0842,-0.0852,-0.0864,-0.0883,-0.0907,-0.0941,-0.0968,-0.0985,-0.1003,-0.1033,-0.1073,-0.1058,-0.1073,-0.107,-0.1095,-0.1148,-0.1076,-0.1076,-0.109,-0.1211,-0.1224,-0.1234,-0.114,-0.1141,-0.1143,-0.1209,0,-0.0887,-0.0948,-0.0944,-0.1001,-0.1029,-0.1012,-0.1042,-0.1058,-0.1062,-0.1086,-0.1091,-0.1119,-0.1097,-0.1106,-0.113,-0.1136,-0.1172,-0.1131,-0.1168,-0.1169,-0.1165,-0.1245,-0.126,-0.1322,-0.1218,-0.1219,-0.122,0,-0.0974,-0.0994,-0.1054,-0.1068,-0.108,-0.1107,-0.1131,-0.1154,-0.1171,-0.1172,-0.1188,-0.118,-0.1215,-0.1185,-0.1233,-0.1205,-0.122,-0.1225,-0.1227,-0.1232,-0.1199,-0.1254,-0.1341,-0.1351,-0.1234,-0.1233,-0.1232,0,-0.1033,-0.1076,-0.1117,-0.1127,-0.1144,-0.1163,-0.1171,-0.1186,-0.1202,-0.1222,-0.1233,-0.1257,-0.1271,-0.129,-0.1289,-0.1267,-0.1338,-0.1308,-0.134,-0.134,-0.1358,-0.1357,-0.145,-0.1364,-0.1364,-0.1364,-0.1364,0,-0.1109,-0.1147,-0.1144,-0.1169,-0.121,-0.1204,-0.1245,-0.1251,-0.1264,-0.129,-0.1277,-0.1302,-0.1298,-0.1323,-0.1322,-0.1362,-0.1368,-0.137,-0.137,-0.1372,-0.1372,-0.1383,-0.1379,-0.1367,-0.1366,-0.1366,-0.1365,0,-0.1183,-0.1183,-0.1227,-0.1238,-0.1242,-0.1272,-0.1282,-0.1306,-0.1307,-0.1341,-0.1348,-0.1352,-0.138,-0.138,-0.1413,-0.1412,-0.1462,-0.1455,-0.1456,-0.1455,-0.1488,-0.1486,-0.1593,-0.1607,-0.1511,-0.1512,-0.1513,0,-0.1233,-0.1261,-0.1275,-0.1291,-0.13,-0.1327,-0.1342,-0.1337,-0.1354,-0.1373,-0.1395,-0.1422,-0.1444,-0.149,-0.1495,-0.152,-0.1515,-0.1551,-0.1519,-0.1521,-0.1517,-0.1516,-0.1519,-0.1558,-0.1559,-0.156,-0.1561,0,-0.1321,-0.1318,-0.1341,-0.1364,-0.1383,-0.1401,-0.1417,-0.1431,-0.1427,-0.1447,-0.1475,-0.1492,-0.1524,-0.1551,-0.1575,-0.1583,-0.1572,-0.157,-0.1579,-0.1583,-0.1583,-0.1584,-0.1475,-0.1569,-0.1568,-0.1567,-0.1567,-0.1567,-0.1385,-0.1409,-0.1422,-0.1448,-0.1459,-0.1474,-0.1497,-0.1501,-0.1524,-0.155,-0.1545,-0.1577,-0.1591,-0.1621,-0.1631,-0.1656,-0.1643,-0.1656,-0.166,-0.1663,-0.1667,-0.1577,-0.166,-0.166,-0.1659,-0.1659,-0.1659,0,-0.1473,-0.148,-0.1504,-0.1526,-0.1546,-0.1532,-0.1548,-0.1566,-0.1594,-0.1608,-0.1629,-0.1661,-0.1687,-0.1693,-0.1718,-0.1736,-0.1732,-0.1743,-0.1742,-0.1745,-0.1677,-0.1667,-0.1746,-0.1746,-0.1746,-0.1746,-0.1746,-0.1746,-0.1521,-0.1561,-0.156,-0.1605,-0.1612,-0.1643,-0.1653,-0.1667,-0.1678,-0.1714,-0.1735,-0.1738,-0.1749,-0.1774,-0.1796,-0.1798,-0.1808,-0.1822,-0.1821,-0.1758,-0.1749,-0.1741,-0.1732,-0.1823,-0.1824,-0.1887,-0.1887,-0.1888]},{"header":{"parameterUnit":"m.s-1","parameterCategory":1,"la1":30.2991,"la2":30.254,"lo1":-89.0895,"lo2":-89.0444,"dy":0.0017,"dx":0.0017,"nx":28,"ny":28,"refTime":"2024-12-20T09:00:00:Z","depth":0,"parameterNumber":3,"parameterNumberName":"V-component_of_WINDS"},"data":[0,0,0,0,0,0,0,0,0,0,0,0,0,0,0,0,0,0,0,0,0,0,0,0,0,0,0,0,0,0,0,0,0,0,0,0,0,0,0,0,0,0,0,0,0,0,0,0,0,0,0,0,0,0,0,0,0,0,-2.5087,-2.5088,0,-2.5156,-2.5156,-2.5157,-2.5094,-2.5091,-2.5089,-2.5086,-2.5154,-2.5158,-2.5162,0,0,0,0,0,0,0,0,0,0,0,0,0,-2.4899,-2.4902,-2.5087,-2.5088,-2.5089,-2.5155,-2.5156,-2.5157,-2.5094,-2.5091,-2.5088,-2.5085,-2.5152,-2.5157,-2.5162,0,0,0,0,0,0,0,0,0,0,0,0,0,-2.4975,-2.4904,-2.5087,-2.5065,-2.5064,-2.5155,-2.5156,-2.5158,-2.5095,-2.5091,-2.5087,-2.5083,-2.5151,-2.5157,-2.5163,-2.5278,0,0,-2.5182,-2.5185,0,0,0,0,0,0,0,0,-2.4971,-2.4982,-2.5067,-2.5067,-2.5066,-2.5112,-2.5115,-2.5198,-2.5096,-2.5083,-2.5086,-2.5082,-2.5143,-2.5149,-2.5171,-2.5281,-2.5284,-2.5182,-2.5186,-2.5189,-2.5191,0,0,0,0,0,0,0,-2.4966,-2.4979,-2.5114,-2.5069,-2.5068,-2.5051,-2.5058,-2.513,-2.5133,-2.5084,-2.5079,-2.5088,-2.5141,-2.5165,-2.5172,-2.5285,-2.5182,-2.5188,-2.5192,-2.5194,-2.5494,-2.5498,0,0,0,0,0,0,-2.4963,-2.4975,-2.5112,-2.5116,-2.5008,-2.5058,-2.5065,-2.5101,-2.5132,-2.5134,-2.5092,-2.5085,-2.5156,-2.5164,-2.5174,-2.5311,-2.5189,-2.5195,-2.5198,-2.549,-2.5495,-2.55,0,0,0,0,0,0,-2.4959,-2.4976,-2.5109,-2.5044,-2.506,-2.5065,-2.5106,-2.5104,-2.5128,-2.5138,-2.5138,-2.5115,-2.5153,-2.5165,-2.5253,-2.5313,-2.5198,-2.5203,-2.5485,-2.5492,-2.5498,-2.5587,0,0,0,0,0,0,-2.4954,-2.4975,-2.5019,-2.5046,-2.5064,-2.5188,-2.5109,-2.5108,-2.5139,-2.5131,-2.516,-2.5161,-2.5151,-2.5244,-2.5259,-2.5319,-2.5208,-2.548,-2.5488,-2.5495,-2.5579,-2.5596,-2.561,0,0,0,0,0,-2.4948,-2.5041,-2.5022,-2.5039,-2.5119,-2.5192,-2.5202,-2.5189,-2.5144,-2.5188,-2.5195,-2.5161,-2.5304,-2.5254,-2.527,-2.5333,-2.5476,-2.5486,-2.5495,-2.5572,-2.5593,-2.561,0,0,0,0,0,0,-2.502,-2.5044,-2.5023,-2.5128,-2.5158,-2.5181,-2.5236,-2.5211,-2.5254,-2.5245,-2.5226,-2.5233,-2.5326,-2.5338,-2.5282,-2.5447,-2.5382,-2.5396,-2.5435,-2.5455,-2.547,-2.5466,-2.5213,0,0,0,0,0,-2.5048,-2.5106,-2.5123,-2.5214,-2.523,-2.5231,-2.5262,-2.5249,-2.528,-2.5292,-2.5305,-2.5335,-2.5387,-2.5422,-2.547,-2.558,-2.5586,-2.5632,-2.5647,-2.566,-2.5672,-2.5732,-2.5753,-2.5531,-2.5531,-2.5531,0,0,-2.5107,-2.5127,-2.5164,-2.5229,-2.5251,-2.5311,-2.5242,-2.5307,-2.5351,-2.5301,-2.5386,-2.5397,-2.5429,-2.5529,-2.5574,-2.5542,-2.5735,-2.5672,-2.5683,-2.5687,-2.5744,-2.5765,-2.5784,-2.5537,-2.5536,-2.5535,0,0,-2.5244,-2.5265,-2.5344,-2.5368,-2.5403,-2.5403,-2.5422,-2.5449,-2.5454,-2.5539,-2.5503,-2.5554,-2.5644,-2.5669,-2.5693,-2.5842,-2.5811,-2.5858,-2.5939,-2.5998,-2.6016,-2.6031,-2.6085,-2.6104,-2.5869,-2.5869,-2.5869,0,-2.5313,-2.5402,-2.5387,-2.5456,-2.5486,-2.5445,-2.5524,-2.5547,-2.5596,-2.5617,-2.5581,-2.5693,-2.5712,-2.5818,-2.5854,-2.5875,-2.5896,-2.5854,-2.6015,-2.603,-2.6044,-2.6095,-2.6115,-2.5875,-2.5874,-2.5874,-2.5873,0,-2.5484,-2.5547,-2.5606,-2.5655,-2.5691,-2.5765,-2.5761,-2.5799,-2.5784,-2.5788,-2.5874,-2.5896,-2.5948,-2.5972,-2.5957,-2.6076,-2.6055,-2.6017,-2.5953,-2.6071,-2.6118,-2.6138,-2.5883,-2.5881,-2.5879,-2.5878,0,0,-2.5669,-2.571,-2.5732,-2.5755,-2.5791,-2.5838,-2.591,-2.5962,-2.5996,-2.6031,-2.609,-2.6168,-2.6133,-2.6161,-2.6148,-2.62,-2.6317,-2.6155,-2.6156,-2.6185,-2.645,-2.6479,-2.6502,-2.6297,-2.6301,-2.6304,-2.6448,0,-2.5808,-2.5934,-2.5923,-2.6042,-2.61,-2.6062,-2.6125,-2.6153,-2.6159,-2.6208,-2.6213,-2.6269,-2.6219,-2.6235,-2.6285,-2.6292,-2.637,-2.6282,-2.6352,-2.6355,-2.6346,-2.6527,-2.6557,-2.6692,-2.6466,-2.6469,-2.6471,0,-2.5987,-2.603,-2.6156,-2.6184,-2.6208,-2.6264,-2.6312,-2.636,-2.6391,-2.6391,-2.6424,-2.6402,-2.6474,-2.6408,-2.6507,-2.6447,-2.6475,-2.6483,-2.6488,-2.6495,-2.6421,-2.6538,-2.6735,-2.6755,-2.65,-2.6498,-2.6496,0,-2.611,-2.6199,-2.6286,-2.6306,-2.6341,-2.6382,-2.6398,-2.6426,-2.6459,-2.65,-2.6521,-2.657,-2.6597,-2.6635,-2.6627,-2.6579,-2.6728,-2.6661,-2.673,-2.6731,-2.6764,-2.6762,-2.6968,-2.6781,-2.6781,-2.678,-2.678,0,-2.6267,-2.6345,-2.6342,-2.6395,-2.6482,-2.6469,-2.6555,-2.6566,-2.6591,-2.6646,-2.6616,-2.6667,-2.6654,-2.6705,-2.67,-2.6783,-2.6795,-2.6797,-2.6794,-2.68,-2.68,-2.6818,-2.6809,-2.6786,-2.6784,-2.6783,-2.6783,0,-2.6419,-2.642,-2.6512,-2.6538,-2.6547,-2.661,-2.6632,-2.6682,-2.6685,-2.6755,-2.677,-2.6775,-2.6834,-2.6831,-2.6896,-2.6892,-2.6995,-2.6981,-2.6985,-2.6982,-2.7052,-2.7046,-2.7278,-2.7308,-2.7101,-2.7103,-2.7105,0,-2.652,-2.6579,-2.6612,-2.6648,-2.6667,-2.6724,-2.6757,-2.6747,-2.6783,-2.6824,-2.6869,-2.6926,-2.697,-2.7065,-2.7075,-2.7125,-2.7112,-2.719,-2.712,-2.7124,-2.7115,-2.7111,-2.7118,-2.7204,-2.7207,-2.7208,-2.721,0,-2.6698,-2.6696,-2.6746,-2.6797,-2.6838,-2.6877,-2.6913,-2.6943,-2.6936,-2.6978,-2.7039,-2.7073,-2.7142,-2.7198,-2.7246,-2.7262,-2.7235,-2.7232,-2.7251,-2.7258,-2.7258,-2.726,-2.7024,-2.7227,-2.7225,-2.7224,-2.7223,-2.7222,-2.6828,-2.6879,-2.6911,-2.6968,-2.6995,-2.7029,-2.7078,-2.7088,-2.7139,-2.7195,-2.7185,-2.7253,-2.7283,-2.7346,-2.7366,-2.7419,-2.7391,-2.7418,-2.7425,-2.7432,-2.7441,-2.7249,-2.7427,-2.7427,-2.7426,-2.7426,-2.7426,0,-2.7005,-2.7024,-2.7077,-2.7129,-2.7174,-2.7146,-2.7184,-2.7224,-2.7285,-2.7316,-2.7361,-2.7431,-2.7485,-2.7499,-2.7552,-2.7591,-2.7581,-2.7606,-2.7603,-2.7607,-2.7462,-2.7441,-2.7614,-2.7614,-2.7614,-2.7613,-2.7613,-2.7613,-2.7103,-2.7189,-2.7191,-2.729,-2.7308,-2.7376,-2.74,-2.7432,-2.7457,-2.7537,-2.7583,-2.7592,-2.7617,-2.7671,-2.772,-2.7722,-2.7743,-2.7774,-2.7771,-2.7636,-2.7617,-2.7599,-2.7579,-2.7778,-2.7778,-2.7912,-2.7913,-2.7914]}]]